Location: Pitton
(51.0667°N, 1.7000°W)
Time: 07:06:47
(UTC+00:00)

Daily predictions for brighter satellites

Satellite Brightness Start Highest point End
(mag) Time Altitude Azimuth Time Altitude Azimuth Time Altitude Azimuth
Cosmos 2333 4.3 18:42:06 10° NNW 18:47:48 88° ENE 18:53:30 10° SSE
Cosmos 1939 Rocket 2.7 18:45:42 10° SSE 18:49:32 73° ENE 18:53:24 10° N
GP-B 3.4 18:45:32 10° NNE 18:49:51 47° E 18:54:08 10° SSE
NOSS 3-4 (A) 4.0 18:43:49 10° NW 18:50:36 64° NE 18:58:03 10° ESE
NOSS 3-4 (C) 4.0 18:43:56 10° NW 18:50:42 64° NE 18:58:09 10° ESE
USA 186 2.9 18:50:03 10° SE 18:53:00 28° ENE 18:56:01 10° N
Cosmos 407 Rocket 4.4 18:48:41 10° N 18:53:17 31° NE 18:57:49 10° ESE
COSMOS 2428 2.7 18:51:03 10° NNW 18:56:46 76° ENE 19:02:26 10° SE
Cosmos 2219 Rocket 2.2 18:51:30 10° NNW 18:57:07 74° ENE 19:02:43 10° SE
Cosmos 2322 4.2 18:54:09 10° NW 18:59:51 67° WSW 19:05:31 10° SSE
USA 116 4.3 18:56:52 10° N 19:01:08 65° WNW 19:04:50 10° SSW
NOSS 3-3 (A) 4.0 18:56:08 10° SSW 19:02:02 62° SE 19:08:40 10° NE
NOSS 3-3 (C) 4.0 18:56:15 10° SSW 19:02:08 62° SE 19:08:46 10° NE
HJ-1C 3.3 18:59:08 10° SSE 19:02:30 76° ENE 19:05:54 10° N
Cosmos 1743 3.8 19:00:17 10° SSW 19:04:02 51° WNW 19:07:50 10° N
CZ-2D R/B 3.7 19:02:04 10° S 19:05:49 65° WSW 19:09:38 10° NNW
NOAA 11 4.4 19:00:20 10° SSE 19:05:50 82° WSW 19:11:23 10° NNW
Cosmos 1536 Rocket 3.8 19:01:38 10° NNW 19:05:59 75° W 19:10:17 10° S
Cosmos 2360 Rocket 3.8 19:03:02 10° NW 19:08:12 38° WSW 19:13:21 10° S
Meteor 1-12 Rocket 4.3 19:02:45 10° S 19:08:21 59° E 19:13:56 10° NNE
Cosmos 1025 Rocket 3.1 19:04:28 10° NNW 19:08:45 82° W 19:13:01 10° S
SPOT 3 Rocket 3.8 19:04:04 10° SE 19:08:59 49° ENE 19:13:57 10° N
Cosmos 2327 Rocket 4.5 19:03:22 10° N 19:09:41 78° E 19:15:51 10° SSE
Nadezhda 1 Rocket 4.0 19:07:47 10° S 19:13:43 59° E 19:19:42 10° NNE
Timation 2 Rocket 4.0 19:09:58 10° SSW 19:16:29 68° ESE 19:22:46 10° NE
Cosmos 1975 3.7 19:12:45 10° SSW 19:16:39 54° WNW 19:20:36 10° N
Cosmos 1892 Rocket 4.4 19:13:08 10° N 19:17:10 32° ENE 19:20:44 12° SE
Meteor 2-15 Rocket 4.4 19:12:06 10° S 19:18:09 66° E 19:24:16 10° NNE
USA 234 3.8 19:12:05 10° ENE 19:18:29 58° N 19:24:54 10° W
Okean 1-7 Rocket 4.3 19:14:56 10° N 19:18:58 33° ENE 19:22:38 12° SE
Meteor 2-15 4.4 19:13:10 10° S 19:19:18 80° E 19:25:29 10° NNE
NOSS 0 Rocket 4.0 19:13:50 10° NNW 19:20:03 72° NE 19:26:15 10° SE
Cosmos 1842 4.3 19:18:03 10° NNW 19:21:54 50° W 19:25:44 10° S
Cosmos 2219 4.0 19:18:21 10° SSE 19:23:10 29° ESE 19:28:00 10° NE
Cosmos 1140 Rocket 4.2 19:18:39 10° NNW 19:23:28 36° NE 19:27:07 16° ESE
Cosmos 2227 Rocket 3.5 19:21:10 10° SE 19:24:50 18° E 19:28:30 10° ENE
ADEOS Rocket 3.9 19:19:24 10° NNE 19:26:02 38° E 19:33:04 10° SSE
EO 1 Delta rocket 4.4 19:20:31 10° SSE 19:27:22 76° ENE 19:32:45 10° N
Meteor 2-9 Rocket 4.4 19:21:53 10° SSW 19:27:40 84° WNW 19:33:21 10° NNE
Cosmos 1437 Rocket 4.2 19:28:05 10° NNE 19:31:00 20° ENE 19:32:06 18° E
CZ-2C R/B 3.7 19:26:50 10° NNE 19:31:16 56° ESE 19:35:37 10° S
ATLAS 2AS CENTAUR R/B 3.2 19:26:39 10° NW 19:34:22 69° SW 19:41:27 10° SSE
Cosmos 2297 Rocket 3.2 19:31:29 10° SSE 19:35:46 23° ESE 19:40:03 10° NE
ARGOS 3.2 19:31:21 10° SSE 19:36:36 58° ENE 19:41:54 10° N
H-2A R/B 2.0 19:35:31 10° SSE 19:40:23 63° ENE 19:45:23 10° N
Cosmos 405 Rocket 3.5 19:40:22 23° SE 19:41:35 28° E 19:44:48 10° NNE
Cosmos 1544 3.2 19:41:29 10° SSW 19:45:05 74° W 19:48:43 10° N
Cosmos 676 Rocket 4.5 19:40:04 10° NNW 19:45:08 43° ENE 19:48:03 23° ESE
Meteor 1-24 Rocket 4.5 19:40:17 10° N 19:45:31 36° ENE 19:48:37 21° ESE
Cosmos 2341 Rocket 3.9 19:39:34 10° N 19:45:52 73° E 19:52:04 10° SSE
Cosmos 1461 2.6 19:42:16 10° SW 19:46:15 82° SE 19:50:14 10° NE
SAR-Lupe-2 3.7 19:42:43 10° NNE 19:46:20 77° WNW 19:49:54 10° SSW
ASTEX 1 3.3 19:45:00 10° N 19:49:55 90° WNW 19:54:49 10° S
Cosmos 2333 Rocket 3.1 19:44:34 10° NW 19:50:03 49° WSW 19:55:31 10° S
Cosmos 2181 Rocket 4.2 19:46:16 10° SSE 19:52:12 49° E 19:58:16 10° NNE
Meteor 2-5 Rocket 3.9 19:54:06 10° N 19:59:50 59° ENE 20:03:38 22° SE
Cosmos 1441 Rocket 3.9 19:56:35 10° SSW 20:00:21 55° WNW 20:04:05 10° N
SL-24 R/B 4.4 19:58:07 26° SE 20:00:31 56° ENE 20:05:22 10° N
MetOp-A 4.2 19:57:57 21° SE 20:01:32 63° ENE 20:06:50 10° N
Cosmos 1544 Rocket 4.2 20:00:48 31° ESE 20:01:53 35° E 20:05:58 10° NNE
Cosmos 1190 Rocket 4.0 19:57:02 10° NNW 20:02:23 86° ENE 20:05:52 22° SSE
Cosmos 1455 Rocket 3.4 20:00:39 26° SSE 20:02:42 43° E 20:06:56 10° NNE
Cosmos 2237 Rocket 2.2 19:56:59 10° NNW 20:02:44 88° SW 20:06:39 21° SSE
ERBS 3.1 20:00:20 10° NW 20:03:36 43° NNE 20:04:33 33° ENE
Cosmos 389 Rocket 2.6 20:01:37 10° NNW 20:05:03 71° W 20:07:00 24° S
In-Cosmos 22 4.0 19:59:45 10° NNW 20:05:07 89° ENE 20:09:45 15° SSE
CZ-4C R/B 4.2 20:00:58 10° WNW 20:06:04 28° N 20:11:59 10° NE
SL-08 RB Rocket 3.7 20:03:31 23° SSE 20:06:28 75° ENE 20:11:09 10° N
Cosmos 2218 Rocket 4.0 20:01:00 10° N 20:07:24 65° ENE 20:11:47 21° SSE
Cosmos 1980 3.8 20:05:55 10° NNW 20:11:35 74° WSW 20:15:25 21° SSE
Cosmos 1023 Rocket 4.4 20:06:56 10° NNW 20:12:09 81° ENE 20:14:45 30° SSE
Cosmos 2366 rocket 4.0 20:07:20 10° N 20:13:43 68° ENE 20:17:48 23° SSE
Cosmos 1674 2.8 20:10:39 10° N 20:14:18 48° ENE 20:14:32 47° E
SL-8 R/B 3.8 20:12:46 10° WSW 20:17:29 60° S 20:18:54 41° ESE
SJ-6B 4.2 20:13:59 10° SSW 20:17:52 39° W 20:21:45 10° NNW
Cosmos 1707 4.3 20:15:36 10° NNW 20:19:13 36° W 20:22:49 10° SSW
Cosmos 864 Rocket 4.4 20:13:00 10° N 20:19:13 70° ENE 20:22:56 26° SSE
Cosmos 1626 Rocket 3.8 20:15:17 10° N 20:19:27 45° ENE 20:19:56 43° E
Resurs 1-3 3.7 20:16:52 24° S 20:19:29 78° WSW 20:23:55 10° NNW
Meteor 1-4 Rocket 2.8 20:17:13 10° NNW 20:20:46 64° W 20:22:06 34° SSW
SPOT 5 4.2 20:21:03 22° ENE 20:21:29 22° ENE 20:25:17 10° N
Resurs 01 Rocket 1.5 20:19:38 33° SSE 20:21:37 87° ENE 20:26:06 10° NNW
CZ-2C R/B 3.0 20:20:05 26° SSE 20:23:06 86° ENE 20:28:40 10° NNW
USA 186 4.2 20:21:09 10° SSW 20:23:56 24° W 20:26:47 10° NW
SL-8 Rocket 4.0 20:18:54 10° N 20:25:09 84° W 20:29:57 18° S
KORONAS-FOTON 3.7 20:26:10 10° N 20:29:55 64° ENE 20:29:55 64° ENE
SL-14 R/B 4.5 20:27:30 10° N 20:30:22 29° NE 20:30:22 29° NE
SL-16 R/B 2.2 20:26:16 10° NNW 20:31:58 67° ENE 20:33:46 43° ESE
Cosmos 2056 Rocket 3.4 20:26:49 10° SSW 20:32:13 72° ESE 20:37:38 10° NNE
DMSP B5D2-2 4.2 20:27:13 10° NNE 20:32:25 53° E 20:33:46 42° SE
Cosmos 407 Rocket 4.2 20:30:33 10° NNW 20:35:30 48° WSW 20:38:35 21° S
Cosmos 1602 Rocket 3.6 20:35:01 10° N 20:39:20 58° ENE 20:39:20 58° ENE
SPOT 1/Viking Rocket 4.1 20:38:50 39° E 20:39:23 40° ENE 20:44:12 10° N
Cosmos 1959 Rocket 4.5 20:33:44 10° NNW 20:39:52 80° W 20:43:39 25° S
Cosmos 2219 Rocket 4.3 20:36:20 10° NW 20:40:31 22° WSW 20:44:39 10° SSW
Cosmos 1766 3.5 20:44:58 60° NE 20:44:58 60° NE 20:48:17 10° NNE
Cosmos 1624 Rocket 3.9 20:39:21 10° SSW 20:44:33 90° S 20:49:48 10° NNE
Cosmos 1741 Rocket 4.2 20:40:13 10° NNW 20:45:28 52° ENE 20:46:11 49° E
Cosmos 2082 4.0 20:50:21 45° E 20:50:21 45° E 20:55:01 10° NE
IGS 5A 4.5 20:51:34 35° NE 20:51:34 35° NE 20:54:38 10° N
BREEZE M DEB (TANK) 2.5 20:51:57 10° W 20:54:23 66° SW 20:54:23 66° SW
CZ-2C R/B 2.8 20:50:30 10° NNE 20:55:49 53° E 20:55:49 53° E
Cosmos 1954 Rocket 4.3 20:51:12 10° NNW 20:56:23 62° WSW 20:57:48 45° SSW
ERS-1 Rocket 3.1 21:00:29 55° ENE 21:00:29 55° ENE 21:05:24 10° N
USA 234 3.7 20:57:41 29° ENE 21:01:03 57° N 21:07:26 10° WNW
Terra 2.9 21:02:05 31° NE 21:02:05 31° NE 21:05:40 10° N
Spot 2 Rocket 3.6 21:00:20 52° SSW 21:01:30 71° WSW 21:06:33 10° NNW
Cosmos 1140 Rocket 4.5 21:00:29 10° NW 21:05:20 41° WSW 21:07:08 30° SSW
Cosmos 2219 3.7 21:01:17 10° SW 21:06:58 60° NW 21:12:41 10° NNE
Cosmos 1437 Rocket 3.8 21:03:51 10° NNW 21:07:27 40° W 21:07:30 40° W
Cosmos 2227 Rocket 2.1 21:02:26 10° SSW 21:08:07 88° WNW 21:13:50 10° NNE
Meteor 1-21 Rocket 4.5 21:05:19 10° N 21:11:06 55° ENE 21:11:15 54° ENE
ADEOS Rocket 4.0 21:04:47 10° N 21:11:46 59° WNW 21:19:15 10° SW
RESURS DK-1 3.1 21:08:22 10° NNW 21:11:33 47° N 21:11:33 47° N
MetOp-B 4.5 21:15:06 49° SSW 21:16:17 61° WSW 21:21:37 10° NNW
Cosmos 1626 3.8 21:14:04 10° N 21:16:03 30° N 21:16:03 30° N
Cosmos 2297 Rocket 2.3 21:13:36 10° SW 21:19:15 73° WNW 21:24:57 10° NNE
H-2A R/B 4.2 21:16:37 10° SW 21:20:17 21° W 21:24:02 10° NW
Cosmos 1452 Rocket 4.1 21:28:21 48° NE 21:28:21 48° NE 21:32:08 10° NNE
Cosmos 1934 Rocket 3.9 21:23:34 10° N 21:29:34 65° ENE 21:29:34 65° ENE
Cosmos 1943 3.6 21:30:55 10° NNW 21:36:12 51° NE 21:36:12 51° NE
Meteor 2-12 Rocket 4.3 21:31:55 10° NNW 21:38:02 80° W 21:38:28 75° SW
Cosmos 2237 Rocket 4.4 21:42:26 10° WNW 21:45:59 17° W 21:48:30 13° SW
Nadezhda 3 Rocket 4.0 21:51:04 70° WSW 21:51:33 74° WNW 21:57:48 10° N
CZ-4C R/B 3.9 21:50:37 10° NW 21:56:29 34° NNE 21:59:37 25° ENE
Resurs 01 Rocket 4.3 21:57:12 11° WSW 21:58:45 13° W 22:00:45 10° WNW
SPOT 5 3.7 22:00:17 47° NW 22:00:17 47° NW 22:04:02 10° NNW
Cosmos 1605 Rocket 4.1 21:59:00 10° N 22:04:48 71° NNE 22:04:48 71° NNE
MOS 1 Rocket 4.5 22:02:23 10° NNE 22:05:50 42° N 22:05:50 42° N
Cosmos 1603 4.2 22:05:23 10° NNW 22:09:58 58° NW 22:09:58 58° NW
SL-16 R/B 3.8 22:11:06 10° NW 22:15:37 25° WSW 22:15:39 25° WSW
CZ-2C R/B 4.3 22:31:12 10° N 22:36:00 31° WNW 22:37:20 28° W
Terra 3.6 22:40:59 27° NW 22:40:59 27° NW 22:43:35 10° NNW
USA 234 3.5 22:45:01 64° WNW 22:45:01 64° WNW 22:50:29 10° WNW
Cosmos 2227 Rocket 4.3 22:48:28 10° W 22:52:59 24° NW 22:57:31 10° NNE
Cosmos 2297 Rocket 4.5 23:00:08 10° W 23:04:19 21° NW 23:08:31 10° NNE
Mayak 1.7 23:13:02 10° N 23:13:40 14° N 23:13:40 14° N
Cosmos 2263 Rocket 3.7 23:23:14 32° NNE 23:23:14 32° NNE 23:26:12 10° NNE
Cosmos 1833 Rocket 4.4 23:27:37 10° NNW 23:31:51 26° NNE 23:31:51 26° NNE
CZ-4C R/B 3.2 23:39:12 10° NW 23:44:45 60° NNW 23:44:45 60° NNW
USA 267 4.4 23:44:35 10° ENE 23:47:57 33° ENE 23:47:57 33° ENE
SL-16 R/B 4.4 23:50:33 20° ENE 23:51:45 21° NE 23:56:11 10° N
